SHU5600 UHWW-UHHH

Flight info

Callsign SHU5600
Flight time 0h 58m
Altitude 35000
Route DOLMA B356 TD B355 ARDEL
Aircraft A319/M-VGDW/C

Departure

Time 2026-04-24 10:11
Airport Vladivostok International Airport (UHWW)

Arrival

Time 2026-04-24 11:10
Airport Khabarovsk Novy Airport (UHHH)
Time Latitude Longitude Altitude Speed Heading
2026-04-24 10:02 43.39914 132.16557 33 ft 0 kts 152°
2026-04-24 10:06 43.39910 132.16561 31 ft 2 kts 152°
2026-04-24 10:06 43.39889 132.16583 32 ft 5 kts 130°
2026-04-24 10:07 43.39894 132.16640 33 ft 7 kts 62°
2026-04-24 10:07 43.39920 132.16707 33 ft 9 kts 62°
2026-04-24 10:07 43.39953 132.16789 32 ft 11 kts 62°
2026-04-24 10:07 43.39989 132.16882 33 ft 11 kts 62°
2026-04-24 10:08 43.40019 132.16957 32 ft 7 kts 62°
2026-04-24 10:08 43.40044 132.17020 33 ft 8 kts 62°
2026-04-24 10:08 43.40073 132.17083 33 ft 8 kts 40°
2026-04-24 10:08 43.40126 132.17080 33 ft 8 kts 328°
2026-04-24 10:09 43.40168 132.17046 33 ft 7 kts 329°
2026-04-24 10:09 43.40204 132.17016 31 ft 6 kts 329°
2026-04-24 10:09 43.40241 132.16986 33 ft 7 kts 329°
2026-04-24 10:09 43.40290 132.16952 33 ft 10 kts 333°
2026-04-24 10:10 43.40361 132.16900 33 ft 11 kts 331°
2026-04-24 10:10 43.40424 132.16852 32 ft 10 kts 330°
2026-04-24 10:10 43.40423 132.16771 31 ft 10 kts 236°
2026-04-24 10:10 43.40331 132.16555 33 ft 59 kts 240°
2026-04-24 10:11 43.40009 132.15754 32 ft 130 kts 240°
2026-04-24 10:11 43.39517 132.14568 414 ft 147 kts 240°
2026-04-24 10:11 43.39028 132.13321 1149 ft 151 kts 237°
2026-04-24 10:11 43.38511 132.12028 1823 ft 154 kts 234°
2026-04-24 10:12 43.38006 132.10790 2497 ft 149 kts 233°
2026-04-24 10:12 43.37498 132.09538 3146 ft 152 kts 234°
2026-04-24 10:12 43.36955 132.08212 3633 ft 167 kts 235°
2026-04-24 10:12 43.36367 132.06771 4199 ft 176 kts 236°
2026-04-24 10:13 43.35766 132.05288 4890 ft 180 kts 236°
2026-04-24 10:13 43.35145 132.03752 5463 ft 187 kts 238°
2026-04-24 10:13 43.34605 132.02078 6040 ft 197 kts 255°
2026-04-24 10:13 43.34615 132.00142 6566 ft 215 kts 282°
2026-04-24 10:14 43.35367 131.98310 7222 ft 228 kts 313°
2026-04-24 10:14 43.36727 131.97184 8084 ft 234 kts 342°
2026-04-24 10:14 43.38338 131.97160 8963 ft 241 kts 13°
2026-04-24 10:14 43.39786 131.98356 9837 ft 251 kts 43°
2026-04-24 10:15 43.40992 132.00196 10402 ft 268 kts 45°
2026-04-24 10:15 43.41834 132.01519 10744 ft 279 kts 45°
2026-04-24 10:15 43.42775 132.03007 11104 ft 292 kts 45°
2026-04-24 10:16 43.44128 132.05156 11760 ft 302 kts 45°
2026-04-24 10:16 43.45539 132.07398 12273 ft 318 kts 45°
2026-04-24 10:16 43.47030 132.09753 12717 ft 335 kts 44°
2026-04-24 10:16 43.48603 132.12227 13199 ft 350 kts 44°
2026-04-24 10:17 43.50218 132.14772 13936 ft 356 kts 44°
2026-04-24 10:17 43.51851 132.17350 14653 ft 359 kts 44°
2026-04-24 10:17 43.53500 132.19956 15365 ft 362 kts 44°
2026-04-24 10:17 43.55141 132.22551 16053 ft 366 kts 44°
2026-04-24 10:18 43.56820 132.25210 16748 ft 370 kts 44°
2026-04-24 10:18 43.58514 132.27896 17450 ft 373 kts 44°
2026-04-24 10:18 43.60226 132.30618 18125 ft 377 kts 43°
2026-04-24 10:18 43.61954 132.33361 18749 ft 381 kts 43°
2026-04-24 10:19 43.63703 132.36134 19353 ft 384 kts 43°
2026-04-24 10:19 43.65464 132.38928 19960 ft 387 kts 43°
2026-04-24 10:19 43.67238 132.41749 20571 ft 391 kts 43°
2026-04-24 10:19 43.69028 132.44595 21196 ft 394 kts 43°
2026-04-24 10:20 43.70833 132.47471 21796 ft 397 kts 43°
2026-04-24 10:20 43.72647 132.50367 22386 ft 401 kts 43°
2026-04-24 10:20 43.74454 132.53252 22978 ft 404 kts 43°
2026-04-24 10:20 43.76303 132.56200 23551 ft 407 kts 43°
2026-04-24 10:21 43.78163 132.59171 24049 ft 411 kts 43°
2026-04-24 10:21 43.80042 132.62172 24499 ft 413 kts 41°
2026-04-24 10:21 43.82023 132.65062 24951 ft 414 kts 38°
2026-04-24 10:21 43.84112 132.67799 25387 ft 414 kts 35°
2026-04-24 10:22 43.86278 132.70438 25836 ft 416 kts 33°
2026-04-24 10:22 43.88489 132.73044 26272 ft 419 kts 33°
2026-04-24 10:22 43.90721 132.75667 26694 ft 422 kts 33°
2026-04-24 10:22 43.92908 132.78269 27116 ft 425 kts 33°
2026-04-24 10:23 43.95188 132.81030 27551 ft 428 kts 34°
2026-04-24 10:23 43.97398 132.83749 27969 ft 432 kts 34°
2026-04-24 10:23 43.99642 132.86544 28370 ft 435 kts 34°
2026-04-24 10:23 44.01897 132.89366 28776 ft 438 kts 35°
2026-04-24 10:24 44.04170 132.92208 29186 ft 441 kts 35°
2026-04-24 10:24 44.06459 132.95065 29576 ft 444 kts 35°
2026-04-24 10:24 44.08762 132.97935 29963 ft 447 kts 35°
2026-04-24 10:24 44.11082 133.00820 30304 ft 449 kts 35°
2026-04-24 10:25 44.13422 133.03728 30599 ft 452 kts 35°
2026-04-24 10:25 44.15774 133.06658 30873 ft 456 kts 35°
2026-04-24 10:25 44.18141 133.09619 31136 ft 459 kts 35°
2026-04-24 10:25 44.20552 133.12539 31403 ft 458 kts 31°
2026-04-24 10:26 44.23117 133.15188 31664 ft 460 kts 30°
2026-04-24 10:26 44.25697 133.17846 31904 ft 463 kts 30°
2026-04-24 10:26 44.28259 133.20487 32156 ft 466 kts 30°
2026-04-24 10:26 44.30875 133.23182 32407 ft 468 kts 30°
2026-04-24 10:27 44.33503 133.25892 32653 ft 471 kts 30°
2026-04-24 10:27 44.36143 133.28614 32881 ft 473 kts 30°
2026-04-24 10:27 44.38800 133.31358 33112 ft 476 kts 30°
2026-04-24 10:27 44.41464 133.34115 33346 ft 478 kts 30°
2026-04-24 10:28 44.44146 133.36897 33577 ft 481 kts 30°
2026-04-24 10:28 44.46841 133.39695 33798 ft 483 kts 30°
2026-04-24 10:28 44.49546 133.42506 34031 ft 486 kts 30°
2026-04-24 10:28 44.52265 133.45335 34245 ft 488 kts 30°
2026-04-24 10:29 44.54951 133.48131 34462 ft 489 kts 30°
2026-04-24 10:29 44.57715 133.51012 34702 ft 490 kts 31°
2026-04-24 10:29 44.60339 133.53751 34946 ft 491 kts 31°
2026-04-24 10:29 44.63182 133.56729 35087 ft 490 kts 31°
2026-04-24 10:30 44.65869 133.59552 35115 ft 489 kts 31°
2026-04-24 10:30 44.71312 133.65274 35114 ft 489 kts 31°
2026-04-24 10:31 44.76707 133.70967 35119 ft 478 kts 31°
2026-04-24 10:31 44.82016 133.76559 35119 ft 477 kts 31°
2026-04-24 10:32 44.87339 133.82158 35125 ft 477 kts 31°
2026-04-24 10:32 44.92652 133.87768 35124 ft 477 kts 31°
2026-04-24 10:33 44.98041 133.93223 35119 ft 476 kts 29°
2026-04-24 10:33 45.03449 133.98523 35124 ft 476 kts 29°
2026-04-24 10:34 45.08884 134.03875 35134 ft 476 kts 30°
2026-04-24 10:34 45.14301 134.09300 35131 ft 476 kts 30°
2026-04-24 10:35 45.19705 134.14743 35135 ft 477 kts 30°
2026-04-24 10:35 45.25067 134.20151 35134 ft 476 kts 30°
2026-04-24 10:36 45.30476 134.25609 35138 ft 477 kts 30°
2026-04-24 10:36 45.35882 134.31061 35131 ft 475 kts 30°
2026-04-24 10:37 45.41247 134.36497 35137 ft 473 kts 30°
2026-04-24 10:37 45.46613 134.41948 35131 ft 473 kts 31°
2026-04-24 10:38 45.51970 134.47405 35136 ft 474 kts 31°
2026-04-24 10:38 45.57290 134.52839 35137 ft 473 kts 31°
2026-04-24 10:39 45.62643 134.58317 35148 ft 473 kts 31°
2026-04-24 10:39 45.67089 134.62880 35146 ft 473 kts 31°
2026-04-24 10:40 45.73338 134.69289 35154 ft 473 kts 31°
2026-04-24 10:40 45.78681 134.74806 35151 ft 473 kts 31°
2026-04-24 10:41 45.83117 134.79396 35154 ft 473 kts 31°
2026-04-24 10:41 45.88598 134.84523 35142 ft 467 kts 21°
2026-04-24 10:42 45.94706 134.87195 35144 ft 455 kts
2026-04-24 10:42 46.00998 134.88040 35141 ft 454 kts
2026-04-24 10:43 46.07247 134.88875 35143 ft 454 kts
2026-04-24 10:43 46.13542 134.89728 35142 ft 454 kts
2026-04-24 10:44 46.19834 134.90574 35144 ft 454 kts
2026-04-24 10:44 46.26137 134.91410 35135 ft 455 kts
2026-04-24 10:44 46.29291 134.91829 34679 ft 455 kts
2026-04-24 10:45 46.32434 134.92253 34069 ft 453 kts
2026-04-24 10:45 46.35563 134.92674 33343 ft 451 kts
2026-04-24 10:45 46.38679 134.93089 32633 ft 448 kts
2026-04-24 10:45 46.41774 134.93505 31944 ft 445 kts
2026-04-24 10:46 46.44849 134.93922 31278 ft 442 kts
2026-04-24 10:46 46.47861 134.94329 30632 ft 439 kts
2026-04-24 10:46 46.50891 134.94735 29942 ft 436 kts
2026-04-24 10:46 46.53897 134.95138 29163 ft 432 kts
2026-04-24 10:47 46.56875 134.95545 28413 ft 428 kts
2026-04-24 10:47 46.59832 134.95949 27673 ft 424 kts
2026-04-24 10:47 46.62757 134.96340 27001 ft 420 kts
2026-04-24 10:47 46.65639 134.96727 26476 ft 413 kts
2026-04-24 10:48 46.68473 134.97113 25447 ft 405 kts
2026-04-24 10:48 46.71245 134.97496 25028 ft 396 kts
2026-04-24 10:48 46.73955 134.97869 24615 ft 389 kts
2026-04-24 10:48 46.76643 134.98235 24205 ft 387 kts
2026-04-24 10:49 46.79311 134.98601 23799 ft 385 kts
2026-04-24 10:49 46.81934 134.98844 23343 ft 380 kts 356°
2026-04-24 10:49 46.84558 134.98620 22866 ft 376 kts 352°
2026-04-24 10:49 46.87157 134.98291 22403 ft 374 kts 352°
2026-04-24 10:50 46.89738 134.97975 21947 ft 372 kts 352°
2026-04-24 10:50 46.92309 134.97663 21495 ft 369 kts 352°
2026-04-24 10:50 46.94861 134.97351 21049 ft 367 kts 352°
2026-04-24 10:50 46.97405 134.97036 20611 ft 365 kts 352°
2026-04-24 10:51 46.99926 134.96723 20182 ft 363 kts 352°
2026-04-24 10:51 47.02436 134.96414 19759 ft 361 kts 352°
2026-04-24 10:51 47.04935 134.96106 19332 ft 360 kts 352°
2026-04-24 10:51 47.07423 134.95798 18919 ft 358 kts 352°
2026-04-24 10:52 47.09899 134.95492 18511 ft 356 kts 352°
2026-04-24 10:52 47.12362 134.95188 18061 ft 354 kts 353°
2026-04-24 10:52 47.14809 134.94887 17596 ft 352 kts 353°
2026-04-24 10:52 47.17210 134.94592 17143 ft 350 kts 353°
2026-04-24 10:53 47.19630 134.94296 16693 ft 348 kts 353°
2026-04-24 10:53 47.22034 134.93999 16249 ft 346 kts 353°
2026-04-24 10:53 47.24426 134.93703 15814 ft 344 kts 353°
2026-04-24 10:53 47.26808 134.93406 15373 ft 342 kts 353°
2026-04-24 10:54 47.29171 134.93107 14960 ft 340 kts 353°
2026-04-24 10:54 47.31524 134.92809 14672 ft 339 kts 353°
2026-04-24 10:54 47.33872 134.92514 14403 ft 338 kts 353°
2026-04-24 10:54 47.36208 134.92222 14136 ft 337 kts 353°
2026-04-24 10:55 47.38541 134.91932 13858 ft 336 kts 353°
2026-04-24 10:55 47.40865 134.91639 13561 ft 335 kts 353°
2026-04-24 10:55 47.43187 134.91351 13255 ft 334 kts 354°
2026-04-24 10:55 47.45499 134.91064 12973 ft 334 kts 354°
2026-04-24 10:56 47.47814 134.90773 12728 ft 333 kts 354°
2026-04-24 10:56 47.50089 134.90485 12495 ft 333 kts 354°
2026-04-24 10:56 47.52393 134.90193 12258 ft 332 kts 354°
2026-04-24 10:56 47.54694 134.89900 12022 ft 332 kts 354°
2026-04-24 10:57 47.56988 134.89610 11790 ft 331 kts 354°
2026-04-24 10:57 47.59280 134.89322 11561 ft 330 kts 354°
2026-04-24 10:57 47.61569 134.89034 11332 ft 330 kts 354°
2026-04-24 10:57 47.63854 134.88745 11104 ft 329 kts 354°
2026-04-24 10:58 47.66136 134.88453 10988 ft 329 kts 354°
2026-04-24 10:58 47.68419 134.88162 10991 ft 329 kts 354°
2026-04-24 10:58 47.70704 134.87873 10992 ft 329 kts 354°
2026-04-24 10:58 47.72988 134.87588 10988 ft 329 kts 354°
2026-04-24 10:59 47.75274 134.87304 10987 ft 330 kts 354°
2026-04-24 10:59 47.77558 134.87018 10989 ft 330 kts 354°
2026-04-24 10:59 47.79845 134.86729 10988 ft 330 kts 354°
2026-04-24 10:59 47.82101 134.86441 10988 ft 330 kts 354°
2026-04-24 11:00 47.84389 134.86147 10990 ft 330 kts 354°
2026-04-24 11:00 47.86675 134.85852 10988 ft 330 kts 354°
2026-04-24 11:00 47.88964 134.85558 10987 ft 330 kts 354°
2026-04-24 11:00 47.91252 134.85268 10988 ft 330 kts 354°
2026-04-24 11:01 47.93542 134.84977 10990 ft 330 kts 354°
2026-04-24 11:01 47.95831 134.84684 10990 ft 330 kts 354°
2026-04-24 11:01 47.98118 134.84388 10990 ft 330 kts 354°
2026-04-24 11:01 48.00407 134.84093 10992 ft 330 kts 354°
2026-04-24 11:02 48.02698 134.83797 10971 ft 330 kts 354°
2026-04-24 11:02 48.04980 134.83501 10589 ft 327 kts 354°
2026-04-24 11:02 48.07234 134.83208 10172 ft 323 kts 354°
2026-04-24 11:02 48.09426 134.82925 9736 ft 318 kts 354°
2026-04-24 11:03 48.11621 134.82641 9280 ft 315 kts 354°
2026-04-24 11:03 48.13793 134.82360 8828 ft 312 kts 354°
2026-04-24 11:03 48.15943 134.82086 8380 ft 309 kts 355°
2026-04-24 11:03 48.18074 134.81814 7935 ft 306 kts 355°
2026-04-24 11:04 48.20185 134.81548 7503 ft 303 kts 356°
2026-04-24 11:04 48.22260 134.81845 7152 ft 297 kts 17°
2026-04-24 11:04 48.24107 134.83046 7100 ft 280 kts 28°
2026-04-24 11:04 48.25811 134.84339 7108 ft 274 kts 27°
2026-04-24 11:05 48.27428 134.85552 7113 ft 274 kts 27°
2026-04-24 11:05 48.29110 134.86816 7112 ft 274 kts 28°
2026-04-24 11:05 48.30631 134.88503 7115 ft 272 kts 43°
2026-04-24 11:05 48.32043 134.90405 7120 ft 272 kts 43°
2026-04-24 11:06 48.33452 134.92307 7121 ft 272 kts 43°
2026-04-24 11:06 48.34856 134.94204 7115 ft 272 kts 43°
2026-04-24 11:06 48.36256 134.96096 6803 ft 268 kts 43°
2026-04-24 11:06 48.37627 134.97948 6412 ft 262 kts 43°
2026-04-24 11:07 48.40373 135.01670 5146 ft 267 kts 43°
2026-04-24 11:07 48.41745 135.03532 4594 ft 265 kts 43°
2026-04-24 11:07 48.43114 135.05391 4041 ft 262 kts 43°
2026-04-24 11:08 48.44447 135.07199 3410 ft 253 kts 43°
2026-04-24 11:08 48.45714 135.08916 2788 ft 244 kts 43°
2026-04-24 11:08 48.46963 135.10611 2127 ft 239 kts 43°
2026-04-24 11:08 48.48186 135.12277 1543 ft 234 kts 43°
2026-04-24 11:09 48.49373 135.13894 1100 ft 225 kts 44°
2026-04-24 11:09 48.50525 135.15445 645 ft 219 kts 45°
2026-04-24 11:09 48.51631 135.16952 294 ft 209 kts 44°
2026-04-24 11:09 48.52656 135.18362 235 ft 183 kts 44°
2026-04-24 11:10 48.53362 135.19328 236 ft 76 kts 41°
2026-04-24 11:10 48.53491 135.19504 237 ft 4 kts 119°
2026-04-24 11:10 48.53480 135.19491 236 ft 3 kts 225°
2026-04-24 11:10 48.53455 135.19453 236 ft 7 kts 225°
2026-04-24 11:11 48.53421 135.19401 239 ft 7 kts 225°
2026-04-24 11:11 48.53384 135.19346 234 ft 8 kts 223°
2026-04-24 11:11 48.53325 135.19270 234 ft 14 kts 221°
2026-04-24 11:11 48.53230 135.19145 234 ft 22 kts 221°
2026-04-24 11:12 48.53098 135.18973 232 ft 28 kts 220°
2026-04-24 11:12 48.52937 135.18756 234 ft 33 kts 224°
2026-04-24 11:12 48.52766 135.18513 239 ft 34 kts 223°
2026-04-24 11:12 48.52583 135.18260 234 ft 37 kts 222°
2026-04-24 11:13 48.52398 135.18012 233 ft 33 kts 221°
2026-04-24 11:13 48.52286 135.17847 236 ft 9 kts 240°
2026-04-24 11:13 48.52295 135.17773 236 ft 7 kts 310°
2026-04-24 11:13 48.52334 135.17709 237 ft 9 kts 311°
2026-04-24 11:14 48.52379 135.17632 237 ft 10 kts 311°
2026-04-24 11:14 48.52429 135.17546 235 ft 12 kts 311°
2026-04-24 11:14 48.52488 135.17452 235 ft 13 kts 316°
2026-04-24 11:14 48.52549 135.17377 237 ft 9 kts 320°
2026-04-24 11:15 48.52580 135.17325 238 ft 5 kts 312°
2026-04-24 11:15 48.52591 135.17307 235 ft 0 kts 312°